GEFSMA_prec_meanprecacc_006.txt.gz
Total_Precipitation_Accumulation
0.01 0.01 0.01 0.01 0.01 0.01 0.01 0.01 0.01 0.02 0.05 0.04 0.01 0.01 0.02 0.02 0.01 0.02 0.03 0.11 0.11 0.06 0.15 0.16 0.11 0.13 0.13 0.09 0.05 0.02 0.01 0.01 0.02 0.03 0.04 0.08 0.13 0.15 0.08 0.01 0.00 0.00 0.01
0.01 0.00 0.00 0.00 0.00 0.01 0.00 0.01 0.02 0.02 0.04 0.06 0.05 0.03 0.03 0.01 0.02 0.02 0.02 0.04 0.07 0.07 0.08 0.07 0.07 0.08 0.10 0.11 0.05 0.02 0.01 0.01 0.02 0.03 0.03 0.03 0.08 0.13 0.07 0.02 0.00 0.01 0.03
0.00 0.00 0.00 0.00 0.00 0.01 0.00 0.00 0.02 0.03 0.05 0.06 0.03 0.02 0.01 0.00 0.01 0.02 0.01 0.02 0.03 0.07 0.08 0.05 0.04 0.05 0.07 0.09 0.03 0.01 0.01 0.01 0.01 0.02 0.02 0.03 0.05 0.08 0.06 0.03 0.01 0.01 0.03
0.01 0.01 0.01 0.01 0.01 0.01 0.00 0.01 0.02 0.05 0.14 0.15 0.05 0.01 0.01 0.01 0.00 0.01 0.01 0.02 0.02 0.03 0.05 0.05 0.04 0.04 0.06 0.07 0.03 0.01 0.00 0.00 0.00 0.01 0.01 0.02 0.04 0.09 0.07 0.03 0.02 0.01 0.02
0.03 0.03 0.02 0.03 0.02 0.01 0.00 0.01 0.01 0.04 0.09 0.15 0.10 0.04 0.05 0.05 0.02 0.01 0.01 0.01 0.01 0.02 0.02 0.03 0.03 0.04 0.06 0.05 0.02 0.01 0.02 0.02 0.03 0.02 0.02 0.03 0.05 0.09 0.08 0.04 0.03 0.02 0.02
0.06 0.04 0.02 0.02 0.02 0.01 0.01 0.03 0.03 0.05 0.05 0.09 0.13 0.08 0.07 0.04 0.02 0.02 0.04 0.03 0.01 0.00 0.00 0.00 0.01 0.02 0.03 0.02 0.03 0.04 0.05 0.06 0.06 0.03 0.02 0.02 0.03 0.07 0.07 0.05 0.04 0.03 0.03
0.12 0.08 0.04 0.03 0.02 0.01 0.01 0.04 0.07 0.04 0.04 0.11 0.12 0.07 0.01 0.01 0.01 0.00 0.02 0.02 0.01 0.00 0.01 0.01 0.01 0.01 0.00 0.01 0.03 0.05 0.05 0.05 0.04 0.03 0.03 0.02 0.02 0.04 0.08 0.09 0.07 0.07 0.05
0.07 0.04 0.02 0.01 0.01 0.01 0.01 0.02 0.03 0.02 0.01 0.06 0.09 0.08 0.02 0.00 0.00 0.00 0.00 0.00 0.00 0.00 0.01 0.01 0.01 0.01 0.00 0.00 0.00 0.02 0.04 0.05 0.06 0.06 0.04 0.03 0.02 0.02 0.07 0.10 0.09 0.09 0.08
0.07 0.03 0.01 0.00 0.00 0.00 0.01 0.01 0.03 0.03 0.03 0.04 0.11 0.14 0.06 0.02 0.01 0.01 0.00 0.01 0.01 0.01 0.01 0.01 0.01 0.00 0.00 0.00 0.00 0.00 0.02 0.03 0.06 0.08 0.05 0.03 0.01 0.01 0.03 0.08 0.13 0.12 0.10
0.04 0.01 0.00 0.00 0.00 0.00 0.01 0.02 0.05 0.08 0.08 0.04 0.08 0.12 0.11 0.05 0.03 0.02 0.02 0.02 0.01 0.00 0.00 0.00 0.00 0.00 0.00 0.00 0.00 0.00 0.00 0.01 0.02 0.04 0.03 0.01 0.01 0.00 0.01 0.06 0.14 0.15 0.13
0.01 0.00 0.00 0.00 0.00 0.00 0.01 0.02 0.03 0.08 0.11 0.07 0.06 0.08 0.13 0.12 0.09 0.05 0.03 0.03 0.02 0.00 0.00 0.00 0.00 0.00 0.00 0.00 0.00 0.01 0.01 0.01 0.00 0.00 0.00 0.00 0.00 0.00 0.01 0.06 0.13 0.20 0.19
0.00 0.00 0.00 0.00 0.00 0.00 0.00 0.01 0.02 0.04 0.05 0.06 0.08 0.08 0.10 0.12 0.12 0.11 0.07 0.05 0.03 0.01 0.00 0.00 0.00 0.00 0.00 0.00 0.01 0.03 0.02 0.01 0.00 0.00 0.00 0.00 0.00 0.00 0.02 0.07 0.14 0.22 0.24
0.00 0.00 0.00 0.00 0.00 0.00 0.00 0.00 0.00 0.01 0.02 0.03 0.06 0.10 0.15 0.19 0.18 0.15 0.09 0.04 0.02 0.01 0.00 0.00 0.00 0.00 0.00 0.01 0.02 0.04 0.02 0.01 0.00 0.00 0.00 0.00 0.01 0.01 0.02 0.05 0.12 0.21 0.24
0.00 0.00 0.00 0.00 0.00 0.00 0.00 0.00 0.00 0.00 0.00 0.01 0.02 0.05 0.09 0.11 0.11 0.11 0.10 0.08 0.06 0.03 0.02 0.02 0.01 0.01 0.03 0.04 0.06 0.05 0.02 0.01 0.00 0.00 0.00 0.00 0.00 0.01 0.01 0.03 0.09 0.14 0.17
0.00 0.00 0.00 0.00 0.00 0.00 0.00 0.00 0.00 0.00 0.00 0.01 0.02 0.03 0.04 0.04 0.05 0.06 0.09 0.13 0.15 0.10 0.06 0.05 0.03 0.04 0.07 0.10 0.11 0.04 0.01 0.00 0.00 0.00 0.01 0.01 0.00 0.01 0.01 0.04 0.08 0.10 0.18
0.00 0.00 0.00 0.00 0.01 0.00 0.00 0.00 0.00 0.01 0.01 0.01 0.05 0.09 0.07 0.05 0.04 0.07 0.12 0.19 0.21 0.17 0.10 0.05 0.04 0.05 0.09 0.16 0.11 0.04 0.02 0.01 0.00 0.00 0.02 0.02 0.02 0.03 0.06 0.13 0.19 0.21 0.23
0.00 0.00 0.00 0.00 0.00 0.00 0.00 0.00 0.00 0.01 0.01 0.01 0.02 0.05 0.05 0.03 0.04 0.05 0.07 0.11 0.13 0.13 0.09 0.07 0.06 0.04 0.06 0.14 0.12 0.05 0.02 0.01 0.00 0.00 0.00 0.00 0.02 0.06 0.12 0.16 0.23 0.27 0.24
0.00 0.00 0.00 0.00 0.00 0.00 0.00 0.00 0.00 0.00 0.00 0.00 0.01 0.02 0.02 0.01 0.01 0.02 0.03 0.06 0.07 0.08 0.08 0.06 0.04 0.02 0.04 0.11 0.15 0.09 0.04 0.02 0.01 0.00 0.00 0.00 0.02 0.03 0.04 0.05 0.10 0.20 0.23
0.00 0.00 0.00 0.00 0.00 0.00 0.00 0.00 0.00 0.00 0.00 0.00 0.00 0.00 0.00 0.00 0.00 0.00 0.00 0.01 0.01 0.02 0.03 0.03 0.02 0.01 0.01 0.03 0.10 0.11 0.07 0.05 0.02 0.01 0.00 0.00 0.01 0.01 0.01 0.01 0.01 0.03 0.06
0.00 0.00 0.00 0.00 0.00 0.00 0.00 0.00 0.00 0.00 0.00 0.00 0.00 0.00 0.00 0.00 0.00 0.00 0.00 0.00 0.00 0.01 0.01 0.02 0.01 0.01 0.02 0.04 0.09 0.15 0.13 0.11 0.04 0.02 0.01 0.01 0.01 0.01 0.01 0.01 0.00 0.00 0.00
0.00 0.00 0.00 0.00 0.00 0.00 0.00 0.00 0.00 0.00 0.00 0.00 0.00 0.00 0.00 0.00 0.00 0.00 0.00 0.00 0.00 0.00 0.00 0.01 0.01 0.02 0.03 0.06 0.08 0.12 0.17 0.17 0.09 0.04 0.03 0.05 0.06 0.04 0.03 0.02 0.01 0.00 0.00
0.00 0.00 0.00 0.00 0.00 0.00 0.00 0.00 0.00 0.00 0.00 0.00 0.00 0.00 0.00 0.00 0.00 0.00 0.00 0.00 0.00 0.00 0.00 0.00 0.00 0.01 0.03 0.06 0.07 0.12 0.20 0.18 0.12 0.08 0.06 0.04 0.05 0.06 0.04 0.04 0.05 0.04 0.02
0.00 0.00 0.00 0.00 0.00 0.00 0.00 0.00 0.00 0.00 0.00 0.00 0.00 0.00 0.00 0.00 0.00 0.00 0.00 0.00 0.00 0.00 0.00 0.00 0.00 0.00 0.01 0.04 0.08 0.16 0.22 0.28 0.25 0.17 0.10 0.05 0.04 0.04 0.04 0.05 0.06 0.06 0.04
0.00 0.00 0.00 0.00 0.00 0.00 0.00 0.00 0.00 0.00 0.00 0.00 0.00 0.00 0.00 0.00 0.00 0.00 0.00 0.00 0.00 0.00 0.00 0.00 0.00 0.00 0.00 0.01 0.05 0.08 0.12 0.18 0.26 0.26 0.20 0.12 0.06 0.04 0.03 0.04 0.05 0.06 0.06
0.00 0.00 0.00 0.00 0.00 0.00 0.00 0.00 0.00 0.00 0.00 0.00 0.00 0.00 0.00 0.00 0.00 0.00 0.00 0.00 0.00 0.00 0.00 0.00 0.00 0.00 0.00 0.00 0.00 0.01 0.02 0.03 0.05 0.07 0.09 0.11 0.10 0.07 0.05 0.04 0.04 0.03 0.03
0.00 0.00 0.00 0.00 0.00 0.00 0.00 0.00 0.00 0.00 0.00 0.00 0.00 0.00 0.00 0.00 0.00 0.00 0.00 0.00 0.00 0.00 0.00 0.00 0.00 0.00 0.00 0.00 0.00 0.00 0.00 0.00 0.00 0.00 0.01 0.01 0.02 0.03 0.02 0.01 0.01 0.02 0.02

GEFSMA_prec_meanprecacc_012.txt.gz
Total_Precipitation_Accumulation
0.01 0.01 0.01 0.01 0.01 0.02 0.03 0.06 0.06 0.06 0.09 0.07 0.04 0.06 0.09 0.15 0.18 0.27 0.17 0.22 0.18 0.11 0.23 0.24 0.17 0.18 0.17 0.12 0.07 0.04 0.02 0.02 0.03 0.04 0.04 0.10 0.15 0.17 0.09 0.03 0.02 0.01 0.01
0.01 0.01 0.00 0.01 0.01 0.01 0.01 0.02 0.05 0.07 0.09 0.12 0.09 0.10 0.10 0.11 0.19 0.24 0.17 0.16 0.12 0.09 0.11 0.12 0.12 0.13 0.13 0.13 0.06 0.03 0.02 0.02 0.03 0.03 0.04 0.06 0.13 0.18 0.10 0.05 0.03 0.03 0.04
0.01 0.02 0.01 0.01 0.02 0.02 0.02 0.02 0.05 0.06 0.07 0.09 0.05 0.06 0.05 0.05 0.07 0.11 0.11 0.09 0.08 0.09 0.09 0.08 0.08 0.08 0.09 0.10 0.04 0.03 0.01 0.01 0.01 0.02 0.03 0.03 0.06 0.10 0.07 0.05 0.04 0.03 0.04
0.03 0.05 0.03 0.02 0.05 0.04 0.03 0.04 0.05 0.07 0.15 0.18 0.07 0.03 0.03 0.02 0.01 0.02 0.03 0.05 0.08 0.06 0.08 0.08 0.07 0.07 0.09 0.08 0.04 0.03 0.01 0.01 0.01 0.01 0.01 0.02 0.05 0.09 0.08 0.04 0.03 0.03 0.02
0.06 0.09 0.08 0.09 0.09 0.06 0.05 0.05 0.05 0.09 0.13 0.19 0.14 0.07 0.07 0.06 0.02 0.02 0.01 0.01 0.03 0.07 0.09 0.07 0.04 0.05 0.09 0.08 0.05 0.04 0.03 0.03 0.03 0.03 0.03 0.04 0.05 0.10 0.09 0.05 0.04 0.03 0.03
0.14 0.17 0.13 0.13 0.13 0.10 0.10 0.12 0.11 0.13 0.11 0.17 0.17 0.10 0.08 0.04 0.03 0.02 0.04 0.03 0.01 0.01 0.03 0.05 0.07 0.04 0.04 0.04 0.05 0.06 0.06 0.07 0.06 0.04 0.04 0.04 0.05 0.09 0.09 0.06 0.05 0.05 0.04
0.34 0.34 0.24 0.23 0.18 0.13 0.10 0.13 0.14 0.09 0.08 0.18 0.17 0.10 0.02 0.01 0.01 0.00 0.02 0.02 0.01 0.00 0.01 0.04 0.06 0.05 0.03 0.01 0.04 0.06 0.07 0.08 0.06 0.05 0.05 0.05 0.05 0.07 0.11 0.10 0.08 0.08 0.06
0.45 0.38 0.33 0.26 0.19 0.14 0.09 0.08 0.07 0.05 0.03 0.10 0.15 0.13 0.04 0.01 0.00 0.00 0.00 0.00 0.00 0.00 0.02 0.04 0.06 0.08 0.06 0.02 0.03 0.03 0.05 0.08 0.11 0.10 0.08 0.06 0.04 0.04 0.09 0.12 0.10 0.10 0.09
0.71 0.59 0.46 0.32 0.19 0.12 0.07 0.05 0.05 0.04 0.04 0.07 0.17 0.23 0.12 0.04 0.03 0.01 0.01 0.01 0.01 0.03 0.04 0.04 0.04 0.04 0.03 0.02 0.01 0.02 0.02 0.03 0.08 0.11 0.09 0.05 0.02 0.01 0.03 0.09 0.14 0.13 0.12
1.08 0.87 0.64 0.41 0.22 0.11 0.06 0.04 0.05 0.09 0.10 0.07 0.12 0.18 0.19 0.12 0.08 0.04 0.04 0.05 0.05 0.03 0.02 0.02 0.01 0.01 0.01 0.01 0.01 0.02 0.01 0.01 0.02 0.05 0.06 0.05 0.03 0.02 0.02 0.07 0.17 0.18 0.17
1.13 0.93 0.67 0.44 0.24 0.10 0.04 0.03 0.04 0.09 0.12 0.09 0.09 0.11 0.16 0.18 0.15 0.12 0.08 0.11 0.11 0.05 0.02 0.00 0.00 0.00 0.00 0.00 0.00 0.01 0.02 0.01 0.01 0.01 0.01 0.02 0.02 0.02 0.03 0.08 0.17 0.25 0.25
0.77 0.63 0.45 0.29 0.17 0.08 0.04 0.02 0.03 0.05 0.06 0.08 0.11 0.12 0.15 0.19 0.24 0.26 0.21 0.20 0.17 0.10 0.04 0.02 0.01 0.01 0.00 0.00 0.01 0.04 0.03 0.02 0.03 0.04 0.04 0.03 0.01 0.01 0.02 0.08 0.15 0.25 0.32
0.34 0.30 0.24 0.19 0.13 0.08 0.04 0.02 0.02 0.02 0.02 0.04 0.07 0.12 0.20 0.28 0.30 0.29 0.24 0.18 0.12 0.09 0.06 0.03 0.01 0.02 0.02 0.03 0.06 0.06 0.05 0.07 0.08 0.07 0.06 0.04 0.02 0.02 0.02 0.05 0.13 0.23 0.32
0.13 0.12 0.13 0.13 0.11 0.07 0.03 0.02 0.02 0.01 0.01 0.02 0.03 0.08 0.12 0.15 0.17 0.21 0.23 0.20 0.16 0.13 0.13 0.10 0.04 0.03 0.08 0.11 0.16 0.15 0.16 0.13 0.08 0.05 0.03 0.02 0.01 0.02 0.01 0.03 0.09 0.15 0.24
0.07 0.07 0.09 0.10 0.09 0.07 0.04 0.03 0.03 0.02 0.02 0.03 0.05 0.07 0.08 0.08 0.08 0.10 0.15 0.21 0.22 0.16 0.12 0.12 0.07 0.06 0.11 0.17 0.22 0.20 0.20 0.13 0.04 0.02 0.02 0.01 0.01 0.01 0.01 0.05 0.08 0.10 0.22
0.03 0.04 0.05 0.05 0.05 0.04 0.02 0.01 0.02 0.02 0.03 0.04 0.08 0.13 0.13 0.10 0.09 0.11 0.16 0.24 0.27 0.21 0.12 0.08 0.06 0.06 0.11 0.20 0.18 0.14 0.14 0.10 0.04 0.03 0.03 0.03 0.03 0.04 0.08 0.15 0.20 0.22 0.26
0.02 0.03 0.03 0.02 0.02 0.01 0.01 0.01 0.01 0.02 0.02 0.02 0.04 0.08 0.08 0.07 0.07 0.09 0.11 0.15 0.18 0.18 0.14 0.11 0.10 0.09 0.10 0.20 0.18 0.13 0.10 0.08 0.07 0.04 0.02 0.02 0.03 0.08 0.15 0.20 0.27 0.30 0.27
0.03 0.02 0.01 0.01 0.00 0.01 0.01 0.01 0.00 0.01 0.01 0.01 0.01 0.03 0.03 0.02 0.03 0.03 0.05 0.07 0.10 0.13 0.14 0.12 0.11 0.10 0.12 0.19 0.22 0.16 0.12 0.11 0.11 0.04 0.02 0.02 0.04 0.05 0.08 0.10 0.17 0.28 0.33
0.02 0.01 0.01 0.01 0.01 0.01 0.01 0.01 0.01 0.01 0.00 0.01 0.01 0.00 0.01 0.01 0.02 0.02 0.01 0.01 0.01 0.03 0.09 0.13 0.14 0.13 0.13 0.14 0.18 0.20 0.18 0.20 0.16 0.08 0.04 0.03 0.04 0.05 0.05 0.05 0.09 0.17 0.27
0.00 0.00 0.01 0.01 0.01 0.01 0.01 0.01 0.01 0.00 0.00 0.00 0.00 0.00 0.01 0.01 0.01 0.00 0.00 0.00 0.00 0.03 0.07 0.11 0.14 0.15 0.15 0.14 0.18 0.26 0.30 0.33 0.25 0.16 0.11 0.08 0.06 0.04 0.03 0.03 0.04 0.09 0.18
0.00 0.00 0.00 0.00 0.00 0.00 0.00 0.00 0.00 0.00 0.00 0.00 0.00 0.00 0.00 0.00 0.00 0.00 0.00 0.00 0.00 0.01 0.02 0.04 0.06 0.07 0.09 0.10 0.12 0.20 0.32 0.43 0.37 0.27 0.22 0.20 0.17 0.13 0.07 0.04 0.02 0.03 0.08
0.00 0.00 0.00 0.00 0.00 0.00 0.00 0.00 0.00 0.00 0.00 0.00 0.00 0.00 0.00 0.00 0.00 0.00 0.00 0.00 0.00 0.00 0.01 0.01 0.01 0.01 0.03 0.07 0.09 0.19 0.33 0.42 0.50 0.48 0.40 0.35 0.30 0.25 0.18 0.11 0.08 0.04 0.03
0.00 0.00 0.00 0.00 0.00 0.00 0.00 0.00 0.00 0.00 0.00 0.00 0.00 0.00 0.00 0.00 0.00 0.00 0.00 0.00 0.00 0.00 0.00 0.01 0.01 0.01 0.01 0.04 0.09 0.19 0.32 0.48 0.63 0.69 0.62 0.57 0.43 0.33 0.27 0.20 0.14 0.08 0.05
0.00 0.00 0.00 0.00 0.00 0.00 0.00 0.00 0.00 0.00 0.00 0.00 0.00 0.00 0.00 0.00 0.00 0.00 0.00 0.00 0.00 0.00 0.00 0.00 0.00 0.00 0.00 0.01 0.06 0.10 0.17 0.28 0.45 0.60 0.68 0.77 0.73 0.57 0.42 0.31 0.24 0.16 0.10
0.00 0.00 0.00 0.00 0.00 0.00 0.00 0.00 0.00 0.00 0.00 0.00 0.00 0.00 0.00 0.00 0.00 0.00 0.00 0.00 0.00 0.00 0.00 0.00 0.00 0.00 0.00 0.00 0.01 0.02 0.03 0.04 0.08 0.15 0.25 0.43 0.60 0.65 0.64 0.55 0.41 0.29 0.19
0.01 0.00 0.00 0.00 0.00 0.00 0.00 0.00 0.00 0.00 0.00 0.00 0.00 0.00 0.00 0.00 0.00 0.00 0.00 0.00 0.00 0.00 0.00 0.00 0.00 0.00 0.00 0.00 0.00 0.00 0.01 0.02 0.02 0.03 0.04 0.09 0.19 0.29 0.42 0.50 0.46 0.39 0.28

GEFSMA_prec_meanprecacc_018.txt.gz
Total_Precipitation_Accumulation
0.02 0.01 0.01 0.01 0.01 0.02 0.06 0.10 0.08 0.09 0.13 0.08 0.05 0.06 0.10 0.16 0.18 0.29 0.18 0.23 0.18 0.12 0.23 0.24 0.17 0.18 0.17 0.12 0.07 0.04 0.03 0.03 0.04 0.05 0.05 0.11 0.17 0.18 0.10 0.04 0.04 0.05 0.05
0.01 0.01 0.01 0.02 0.01 0.01 0.01 0.05 0.07 0.12 0.13 0.14 0.10 0.10 0.10 0.12 0.19 0.25 0.18 0.18 0.13 0.09 0.11 0.12 0.12 0.13 0.13 0.14 0.06 0.03 0.02 0.02 0.04 0.04 0.04 0.07 0.13 0.18 0.10 0.05 0.04 0.05 0.07
0.01 0.02 0.02 0.02 0.04 0.04 0.05 0.06 0.08 0.10 0.11 0.13 0.07 0.08 0.06 0.05 0.07 0.11 0.11 0.10 0.09 0.09 0.09 0.08 0.09 0.08 0.09 0.10 0.05 0.03 0.01 0.01 0.02 0.02 0.03 0.03 0.06 0.10 0.07 0.05 0.04 0.05 0.07
0.04 0.07 0.06 0.05 0.11 0.11 0.11 0.15 0.14 0.17 0.27 0.28 0.15 0.08 0.04 0.03 0.02 0.03 0.03 0.05 0.08 0.07 0.08 0.09 0.08 0.08 0.09 0.09 0.04 0.03 0.02 0.01 0.01 0.01 0.01 0.02 0.05 0.09 0.08 0.04 0.04 0.03 0.04
0.08 0.14 0.13 0.19 0.21 0.21 0.21 0.17 0.21 0.30 0.35 0.40 0.26 0.15 0.08 0.07 0.03 0.02 0.01 0.01 0.04 0.07 0.09 0.08 0.05 0.06 0.10 0.09 0.06 0.05 0.04 0.03 0.03 0.03 0.03 0.04 0.06 0.10 0.09 0.05 0.04 0.03 0.03
0.20 0.28 0.23 0.28 0.30 0.28 0.28 0.31 0.34 0.37 0.34 0.41 0.30 0.16 0.10 0.05 0.03 0.02 0.04 0.03 0.01 0.01 0.03 0.06 0.11 0.07 0.06 0.05 0.07 0.08 0.08 0.09 0.07 0.04 0.05 0.04 0.05 0.09 0.09 0.06 0.05 0.05 0.04
0.45 0.51 0.38 0.44 0.38 0.31 0.29 0.33 0.35 0.32 0.32 0.47 0.39 0.21 0.06 0.01 0.01 0.00 0.02 0.02 0.01 0.00 0.01 0.05 0.11 0.11 0.10 0.05 0.07 0.09 0.10 0.11 0.09 0.06 0.06 0.05 0.05 0.08 0.12 0.11 0.09 0.09 0.07
0.62 0.56 0.53 0.49 0.44 0.39 0.33 0.34 0.35 0.31 0.28 0.37 0.39 0.31 0.14 0.04 0.01 0.00 0.00 0.00 0.00 0.00 0.02 0.04 0.08 0.13 0.13 0.10 0.17 0.08 0.07 0.13 0.15 0.13 0.10 0.07 0.05 0.04 0.09 0.13 0.11 0.11 0.10
0.93 0.85 0.71 0.60 0.51 0.47 0.42 0.37 0.37 0.37 0.36 0.36 0.43 0.49 0.30 0.15 0.08 0.02 0.01 0.01 0.02 0.04 0.05 0.05 0.06 0.09 0.09 0.09 0.14 0.18 0.07 0.07 0.13 0.18 0.15 0.09 0.04 0.02 0.04 0.10 0.16 0.15 0.14
1.21 1.05 0.86 0.67 0.53 0.48 0.45 0.42 0.43 0.47 0.48 0.40 0.40 0.44 0.41 0.32 0.22 0.09 0.06 0.08 0.11 0.09 0.07 0.04 0.02 0.03 0.04 0.06 0.11 0.20 0.10 0.04 0.06 0.11 0.14 0.13 0.08 0.04 0.03 0.08 0.22 0.25 0.20
1.19 1.03 0.87 0.74 0.63 0.54 0.49 0.46 0.46 0.50 0.52 0.46 0.41 0.39 0.44 0.42 0.34 0.24 0.16 0.26 0.28 0.18 0.12 0.06 0.04 0.04 0.04 0.04 0.08 0.13 0.11 0.06 0.04 0.03 0.04 0.06 0.07 0.06 0.06 0.10 0.22 0.34 0.35
0.83 0.73 0.62 0.53 0.49 0.47 0.47 0.46 0.45 0.46 0.46 0.45 0.42 0.39 0.41 0.42 0.46 0.44 0.35 0.34 0.34 0.29 0.20 0.13 0.09 0.08 0.06 0.05 0.13 0.19 0.15 0.12 0.09 0.07 0.05 0.03 0.03 0.03 0.05 0.11 0.19 0.30 0.40
0.41 0.36 0.32 0.31 0.29 0.29 0.29 0.32 0.32 0.34 0.36 0.36 0.37 0.39 0.43 0.49 0.49 0.47 0.40 0.32 0.27 0.26 0.25 0.19 0.10 0.10 0.08 0.11 0.22 0.22 0.14 0.15 0.14 0.10 0.07 0.05 0.04 0.03 0.03 0.07 0.15 0.26 0.36
0.27 0.23 0.22 0.23 0.23 0.24 0.24 0.26 0.27 0.25 0.25 0.25 0.24 0.28 0.31 0.32 0.32 0.34 0.35 0.30 0.25 0.26 0.30 0.26 0.12 0.09 0.12 0.17 0.23 0.20 0.24 0.19 0.11 0.06 0.04 0.03 0.02 0.02 0.02 0.04 0.10 0.17 0.25
0.25 0.23 0.23 0.24 0.26 0.28 0.28 0.26 0.26 0.24 0.24 0.26 0.27 0.27 0.26 0.25 0.21 0.20 0.23 0.27 0.27 0.22 0.22 0.22 0.12 0.08 0.12 0.20 0.24 0.24 0.35 0.22 0.07 0.03 0.02 0.02 0.01 0.02 0.02 0.05 0.09 0.11 0.23
0.25 0.27 0.25 0.24 0.25 0.24 0.21 0.19 0.21 0.21 0.23 0.25 0.26 0.29 0.27 0.24 0.19 0.19 0.22 0.29 0.31 0.26 0.18 0.13 0.10 0.10 0.15 0.22 0.19 0.17 0.20 0.14 0.07 0.04 0.04 0.04 0.03 0.04 0.08 0.16 0.21 0.22 0.26
0.24 0.27 0.27 0.24 0.21 0.17 0.14 0.13 0.14 0.16 0.19 0.20 0.17 0.18 0.17 0.13 0.14 0.14 0.14 0.18 0.21 0.21 0.18 0.17 0.17 0.17 0.19 0.29 0.26 0.19 0.15 0.14 0.12 0.07 0.04 0.03 0.03 0.08 0.15 0.21 0.28 0.32 0.29
0.31 0.28 0.26 0.23 0.18 0.15 0.13 0.12 0.13 0.16 0.17 0.16 0.12 0.10 0.08 0.07 0.08 0.06 0.07 0.08 0.11 0.15 0.16 0.17 0.19 0.20 0.24 0.29 0.31 0.25 0.19 0.17 0.18 0.09 0.05 0.04 0.05 0.06 0.08 0.11 0.19 0.31 0.37
0.33 0.29 0.25 0.23 0.18 0.16 0.16 0.18 0.17 0.13 0.08 0.06 0.04 0.04 0.04 0.04 0.05 0.04 0.02 0.01 0.02 0.05 0.13 0.19 0.23 0.22 0.23 0.22 0.26 0.28 0.27 0.30 0.25 0.16 0.10 0.07 0.06 0.07 0.07 0.07 0.12 0.21 0.33
0.25 0.23 0.22 0.20 0.17 0.16 0.17 0.14 0.09 0.05 0.03 0.02 0.01 0.01 0.01 0.01 0.01 0.01 0.01 0.01 0.01 0.06 0.12 0.17 0.21 0.21 0.21 0.18 0.23 0.30 0.34 0.41 0.36 0.27 0.22 0.17 0.13 0.09 0.09 0.07 0.08 0.14 0.24
0.19 0.20 0.18 0.14 0.13 0.12 0.09 0.07 0.04 0.02 0.02 0.01 0.00 0.00 0.00 0.00 0.00 0.00 0.00 0.00 0.01 0.04 0.05 0.07 0.09 0.09 0.09 0.11 0.13 0.21 0.34 0.47 0.44 0.35 0.33 0.33 0.31 0.27 0.23 0.17 0.09 0.07 0.14
0.11 0.11 0.09 0.07 0.06 0.03 0.01 0.01 0.01 0.01 0.01 0.00 0.00 0.00 0.00 0.00 0.00 0.00 0.00 0.00 0.00 0.01 0.02 0.04 0.02 0.02 0.04 0.07 0.10 0.21 0.35 0.43 0.52 0.52 0.48 0.48 0.46 0.44 0.38 0.29 0.19 0.10 0.08
0.06 0.06 0.04 0.02 0.01 0.00 0.00 0.00 0.00 0.00 0.00 0.00 0.00 0.00 0.00 0.00 0.00 0.00 0.00 0.00 0.00 0.00 0.00 0.02 0.01 0.01 0.01 0.05 0.10 0.21 0.36 0.53 0.66 0.71 0.67 0.67 0.57 0.52 0.48 0.40 0.29 0.18 0.11
0.05 0.05 0.03 0.01 0.00 0.00 0.00 0.00 0.00 0.00 0.00 0.00 0.00 0.00 0.00 0.00 0.00 0.00 0.00 0.00 0.00 0.00 0.00 0.00 0.00 0.00 0.00 0.02 0.06 0.11 0.20 0.35 0.56 0.67 0.73 0.83 0.82 0.73 0.69 0.61 0.50 0.32 0.20
0.06 0.05 0.03 0.01 0.00 0.00 0.00 0.00 0.00 0.00 0.00 0.00 0.00 0.00 0.00 0.00 0.00 0.00 0.00 0.00 0.00 0.00 0.00 0.00 0.00 0.00 0.00 0.00 0.01 0.02 0.03 0.05 0.15 0.24 0.30 0.49 0.68 0.77 0.84 0.83 0.72 0.56 0.40
0.06 0.04 0.02 0.01 0.00 0.00 0.00 0.00 0.00 0.00 0.00 0.00 0.00 0.00 0.00 0.00 0.00 0.00 0.00 0.00 0.00 0.00 0.00 0.00 0.00 0.00 0.00 0.00 0.00 0.00 0.01 0.02 0.04 0.08 0.09 0.15 0.27 0.39 0.55 0.64 0.65 0.63 0.55

GEFSMA_prec_meanprecacc_024.txt.gz
Total_Precipitation_Accumulation
0.02 0.01 0.01 0.02 0.02 0.03 0.07 0.10 0.09 0.10 0.14 0.09 0.06 0.07 0.11 0.17 0.20 0.30 0.20 0.23 0.18 0.12 0.25 0.28 0.20 0.21 0.20 0.14 0.09 0.05 0.03 0.03 0.05 0.05 0.06 0.13 0.19 0.22 0.13 0.07 0.07 0.09 0.08
0.02 0.02 0.01 0.03 0.02 0.01 0.02 0.06 0.08 0.14 0.14 0.15 0.11 0.11 0.12 0.14 0.22 0.27 0.20 0.19 0.14 0.09 0.12 0.15 0.17 0.17 0.17 0.16 0.08 0.04 0.03 0.03 0.04 0.04 0.05 0.07 0.14 0.20 0.13 0.08 0.06 0.07 0.08
0.02 0.03 0.03 0.03 0.04 0.05 0.06 0.07 0.10 0.12 0.14 0.16 0.11 0.12 0.11 0.10 0.12 0.15 0.14 0.13 0.11 0.11 0.10 0.10 0.12 0.13 0.15 0.16 0.09 0.05 0.02 0.02 0.02 0.03 0.03 0.04 0.06 0.11 0.08 0.06 0.06 0.06 0.08
0.07 0.11 0.09 0.08 0.14 0.15 0.14 0.19 0.19 0.23 0.34 0.37 0.25 0.19 0.15 0.13 0.09 0.08 0.09 0.11 0.13 0.09 0.10 0.12 0.11 0.12 0.16 0.17 0.12 0.11 0.07 0.03 0.01 0.01 0.01 0.03 0.05 0.09 0.08 0.04 0.04 0.04 0.05
0.20 0.28 0.26 0.29 0.33 0.32 0.31 0.27 0.32 0.42 0.47 0.55 0.43 0.30 0.21 0.16 0.09 0.09 0.11 0.10 0.09 0.12 0.14 0.12 0.07 0.10 0.19 0.24 0.21 0.18 0.14 0.10 0.06 0.04 0.03 0.05 0.06 0.10 0.09 0.05 0.04 0.03 0.03
0.38 0.53 0.49 0.52 0.53 0.49 0.46 0.50 0.53 0.58 0.54 0.62 0.51 0.31 0.20 0.13 0.11 0.09 0.10 0.08 0.04 0.05 0.08 0.13 0.19 0.19 0.25 0.28 0.26 0.23 0.22 0.19 0.13 0.07 0.05 0.05 0.05 0.09 0.09 0.06 0.05 0.05 0.04
0.66 0.84 0.73 0.78 0.75 0.67 0.60 0.65 0.68 0.61 0.55 0.71 0.60 0.33 0.13 0.07 0.05 0.03 0.04 0.04 0.03 0.03 0.06 0.13 0.20 0.24 0.24 0.24 0.25 0.22 0.22 0.22 0.18 0.12 0.09 0.06 0.06 0.08 0.12 0.11 0.09 0.09 0.07
0.85 0.92 0.96 0.91 0.88 0.81 0.68 0.66 0.68 0.58 0.48 0.59 0.63 0.53 0.28 0.11 0.04 0.02 0.04 0.05 0.07 0.09 0.12 0.14 0.17 0.24 0.24 0.24 0.30 0.20 0.20 0.27 0.29 0.25 0.17 0.10 0.07 0.06 0.10 0.13 0.12 0.11 0.10
1.09 1.11 1.02 0.97 0.91 0.87 0.73 0.65 0.67 0.64 0.56 0.57 0.70 0.78 0.52 0.28 0.18 0.08 0.10 0.17 0.22 0.24 0.22 0.20 0.21 0.22 0.26 0.31 0.39 0.44 0.25 0.25 0.32 0.40 0.33 0.19 0.08 0.04 0.06 0.12 0.18 0.16 0.14
1.29 1.18 1.02 0.88 0.77 0.75 0.68 0.63 0.68 0.70 0.68 0.55 0.57 0.63 0.60 0.51 0.40 0.22 0.15 0.22 0.33 0.34 0.29 0.26 0.23 0.20 0.24 0.31 0.40 0.54 0.35 0.23 0.24 0.35 0.37 0.30 0.19 0.10 0.07 0.13 0.29 0.31 0.24
1.22 1.09 0.96 0.85 0.77 0.70 0.63 0.60 0.60 0.61 0.62 0.56 0.54 0.55 0.62 0.64 0.59 0.48 0.33 0.37 0.37 0.29 0.24 0.20 0.19 0.24 0.28 0.31 0.40 0.48 0.43 0.37 0.34 0.29 0.27 0.25 0.23 0.18 0.14 0.18 0.34 0.49 0.47
0.84 0.76 0.67 0.59 0.57 0.55 0.55 0.53 0.51 0.52 0.52 0.53 0.53 0.54 0.60 0.68 0.76 0.76 0.61 0.51 0.44 0.34 0.26 0.20 0.19 0.22 0.26 0.27 0.36 0.43 0.39 0.40 0.38 0.33 0.25 0.18 0.14 0.13 0.15 0.22 0.34 0.48 0.59
0.44 0.39 0.36 0.35 0.34 0.35 0.35 0.36 0.36 0.37 0.39 0.41 0.44 0.50 0.61 0.71 0.75 0.75 0.65 0.51 0.41 0.35 0.34 0.29 0.21 0.23 0.22 0.25 0.34 0.32 0.23 0.26 0.26 0.23 0.20 0.17 0.14 0.11 0.10 0.13 0.23 0.37 0.50
0.31 0.28 0.27 0.29 0.29 0.29 0.28 0.30 0.31 0.29 0.29 0.31 0.31 0.38 0.47 0.51 0.54 0.58 0.59 0.51 0.42 0.38 0.40 0.36 0.21 0.17 0.18 0.22 0.26 0.22 0.25 0.21 0.13 0.08 0.07 0.06 0.06 0.06 0.06 0.08 0.14 0.20 0.29
0.32 0.31 0.33 0.35 0.37 0.40 0.38 0.35 0.33 0.31 0.33 0.34 0.35 0.38 0.41 0.42 0.40 0.41 0.44 0.45 0.41 0.34 0.30 0.29 0.17 0.12 0.14 0.20 0.25 0.24 0.35 0.22 0.07 0.03 0.02 0.02 0.02 0.02 0.03 0.06 0.10 0.12 0.24
0.32 0.36 0.37 0.40 0.41 0.39 0.36 0.31 0.31 0.31 0.35 0.37 0.37 0.43 0.43 0.40 0.35 0.36 0.38 0.42 0.41 0.32 0.24 0.18 0.13 0.11 0.15 0.22 0.20 0.17 0.20 0.14 0.07 0.04 0.04 0.04 0.03 0.04 0.08 0.16 0.21 0.23 0.27
0.29 0.33 0.37 0.38 0.38 0.37 0.34 0.31 0.31 0.31 0.33 0.34 0.33 0.36 0.35 0.29 0.29 0.28 0.26 0.27 0.26 0.24 0.20 0.18 0.18 0.17 0.20 0.29 0.26 0.20 0.15 0.14 0.12 0.07 0.04 0.03 0.03 0.08 0.15 0.21 0.28 0.32 0.29
0.36 0.36 0.39 0.39 0.38 0.39 0.42 0.41 0.36 0.37 0.36 0.34 0.31 0.30 0.25 0.18 0.16 0.12 0.12 0.12 0.13 0.16 0.17 0.17 0.19 0.20 0.24 0.29 0.31 0.25 0.20 0.17 0.18 0.09 0.06 0.04 0.05 0.06 0.08 0.11 0.19 0.31 0.37
0.41 0.42 0.44 0.50 0.51 0.51 0.48 0.49 0.45 0.39 0.31 0.24 0.19 0.15 0.12 0.09 0.07 0.05 0.04 0.03 0.03 0.05 0.13 0.19 0.23 0.23 0.23 0.23 0.26 0.28 0.27 0.30 0.26 0.17 0.11 0.07 0.07 0.07 0.07 0.08 0.12 0.21 0.33
0.32 0.36 0.42 0.50 0.56 0.57 0.58 0.53 0.41 0.30 0.21 0.15 0.10 0.06 0.04 0.02 0.01 0.01 0.01 0.01 0.02 0.06 0.12 0.17 0.21 0.21 0.21 0.18 0.23 0.30 0.34 0.41 0.36 0.27 0.22 0.17 0.14 0.10 0.10 0.08 0.09 0.14 0.24
0.29 0.35 0.40 0.46 0.54 0.58 0.55 0.48 0.33 0.21 0.14 0.08 0.04 0.02 0.01 0.00 0.00 0.00 0.00 0.00 0.02 0.04 0.05 0.07 0.09 0.09 0.09 0.11 0.13 0.21 0.34 0.47 0.44 0.35 0.33 0.33 0.31 0.27 0.24 0.18 0.10 0.07 0.14
0.18 0.23 0.26 0.28 0.28 0.31 0.34 0.27 0.17 0.10 0.05 0.03 0.01 0.00 0.00 0.00 0.00 0.00 0.00 0.00 0.00 0.01 0.02 0.04 0.02 0.02 0.04 0.07 0.10 0.21 0.35 0.43 0.52 0.53 0.48 0.48 0.46 0.44 0.39 0.30 0.20 0.10 0.09
0.09 0.10 0.10 0.10 0.10 0.10 0.09 0.06 0.05 0.04 0.02 0.01 0.00 0.00 0.00 0.00 0.00 0.00 0.00 0.00 0.00 0.00 0.00 0.02 0.01 0.01 0.01 0.05 0.10 0.21 0.36 0.53 0.66 0.71 0.67 0.68 0.57 0.52 0.49 0.41 0.30 0.18 0.13
0.06 0.06 0.05 0.03 0.03 0.03 0.02 0.02 0.01 0.01 0.00 0.00 0.00 0.00 0.00 0.00 0.00 0.00 0.00 0.00 0.00 0.00 0.00 0.00 0.00 0.00 0.00 0.02 0.06 0.11 0.20 0.36 0.56 0.67 0.73 0.84 0.82 0.74 0.69 0.62 0.51 0.33 0.22
0.06 0.05 0.03 0.01 0.00 0.00 0.00 0.00 0.00 0.00 0.00 0.00 0.00 0.00 0.00 0.00 0.00 0.00 0.00 0.00 0.00 0.00 0.00 0.00 0.00 0.00 0.00 0.00 0.01 0.02 0.03 0.05 0.15 0.24 0.30 0.49 0.68 0.77 0.84 0.84 0.73 0.58 0.42
0.06 0.04 0.02 0.01 0.00 0.00 0.00 0.00 0.00 0.00 0.00 0.00 0.00 0.00 0.00 0.00 0.00 0.00 0.00 0.00 0.00 0.00 0.00 0.00 0.00 0.00 0.00 0.00 0.00 0.00 0.01 0.02 0.04 0.08 0.09 0.15 0.27 0.39 0.56 0.65 0.66 0.64 0.57